Location: Casteau
(50.5142°N, 4.0161°E)
Time: 05:13:33
(UTC+00:00)

Cosmos 1898 Rocket - Pass Details

Date: 18 September 2020
Orbit: 753 x 784 km, 74.0° (Epoch: 29 October)

Event Time Altitude Azimuth Distance (km) Brightness Sun altitude
Rises 18:24:34 0° 193° (SSW) 3,193 6.8 -6.3°
Reaches altitude 10° 18:26:55 10° 190° (S) 2,272 6.0 -6.6°
Maximum altitude 18:32:01 66° 110° (ESE) 825 3.5 -7.4°
Drops below altitude 10° 18:37:10 10° 29° (NNE) 2,294 5.8 -8.2°
Sets 18:39:33 0° 27° (NNE) 3,227 6.6 -8.6°
